Погода в Бирзаи

Поиск расширенной информации на нашем сайте:

Полезная информация:

Новости сайта



02.01.2020
Опубликован Долгосрочный прогноз погоды по городам России и ближнего зарубежья на январь 2020 года.
Карты: Прогноз на январь и февраль 2020 года, Сравнение прогнозируемой аномалии приземной температуры воздуха на январь 2020 года по разным моделям.




Погода в Бирзаи - сегодня

Время (UTC), дата Ветер
(°,м/с) 
Видим.   Явления Облачность Т
(°С)
Тd
(°С)
f(%) Тe
(°С)
Pmin
(гПа)
dP
(гПа)
Po
(мм)
O2
(г/м3)
Тmin Tmax R s Состояние
почвы
06 27.11.21 050 (СВ) 3-5{05}  1900 м  слаб. дождь со снегом  10/10 150 м 
[Frnb|Ns]
+0.6 +0 96 -1  995.7  -1.4  741  298  -0.1    0.2    влажная 
09 27.11.21 050 (СВ) 3-5{06}  1900 м  слаб. снег{дождь}  10/10 120 м 
[Frnb|Ns]
+0.5 +0.1 97 -1  994.2  -1.5  740  298        <0.5  равномерный
мокрый или
старый снег
100% 
12 27.11.21 060 (СВ) 2-5{06}  2200 м  слаб. снег{дождь}  10/10 150 м 
[Frnb|Ns]
+0.6 +0.1 96 992.9  -1.3  739  297      <0.5  равномерный
мокрый или
старый снег
100% 
15 27.11.21 120 (ЮВ) 2-3{06}  1900 м  слаб. снег  10/10 240 м 
[Frnb]
+0.3 +0 98 993.2  0.3  739  297        равномерный
мокрый или
старый снег
100% 
18 27.11.21 140 (ЮВ) 1-3{04}  4200 м  слаб. снег  10/10 330 м 
[Frnb|Ns]
+0.2 -0.1 98 +1  994.2  740  298    +0.7  равномерный
мокрый или
старый снег
100% 
21 27.11.21 150 (ЮВ) 1-2{04}  10 км  слаб. дождь{снег}  10/10 720 м 
[Ns]
+0.2 -0.1 98 +1  995.7  1.5  741  298        равномерный
мокрый или
старый снег
100% 
00 28.11.21 060 (СВ) 2-3{03}  11000 м  слаб. снег{дождь}  10/10 300 м 
[Frnb|Ns]
-0.1 -0.7 96 -1  996.3  0.6  742  299      0.4  равномерный
мокрый или
старый снег
100% 
03 28.11.21 060 (СВ) 2-3{04}  5000 м  слаб. снег  10/10 240 м 
[Ns]
-0.5 -1 96 -1  996.9  0.6  742  300        равномерный
мокрый или
старый снег
100% 
06 28.11.21 100 (В) 1-2{03}  2300 м  слаб. снег  10/10 150 м 
[Frnb|Ns]
-0.3 -0.8 96 997.9  0.9  743  300  -0.5    равномерный
мокрый или
старый снег
100% 
09 28.11.21 220 (ЮЗ) 2-3{05}  7000 м  дымка{снег}  10/10 100 м 
[St]
+0.5 +0 96 999.7  1.8  744  299        равномерный
мокрый или
старый снег
100% 
12 28.11.21 180 (Ю) 1-2{04}  4600 м  дымка{снег}  10/10 150 м 
[St]
+1 +0.3 95 +2  1000.4  0.8  745  299      0.0  равномерный
мокрый или
старый снег
100% 
15 28.11.21 130 (ЮВ) 1-2{03}  4600 м  дымка  10/10 180 м 
[St]
+1 +0.4 96 +2  1001.5  745  299        равномерный
мокрый или
старый снег
100% 
18 28.11.21 140 (ЮВ) 3-5{05}  8000 м  дымка  9/9 900 м 
[Sc]
+1 +0 93 -1  1001.8  0.3  746  299    +1.1  0.0  равномерный
мокрый или
старый снег
100% 
21 28.11.21 080 (В) 2-3{04}  6000 м  дымка  10/10 930 м 
[Sc]
+0.6 +0.1 96 1002  0.3  746  300        равномерный
мокрый или
старый снег
100% 
00 29.11.21 060 (СВ) 2-4{05}  8000 м  дымка  10/10 840 м 
[Sc]
+0.5 -0.1 96 1000.4  -1.7  745  299        равномерный
мокрый или
старый снег
100% 
03 29.11.21 060 (СВ) 4-6{07}  20000 м  в посл. час ливневой дождь  10/10 1500 м 
[Sc]
+0.7 -1.5 85 -2  998.9  -1.4  743  299        равномерный
мокрый или
старый снег
100% 
06 29.11.21 050 (СВ) 4-7{09}  1600 м  слаб. снег{ливн. осадки}  10/10 240 м 
[Frnb|Ns]
+0 -0.9 94 -2  996.4  -2.5  742  299  +0    0.4  равномерный
мокрый или
старый снег
100% 
09 29.11.21 050 (СВ) 3-6{09}  1900 м  слаб. снег  10/10 300 м 
[Frnb|Ns]
-0.1 -0.7 96 -2  994.6  -1.8  740  298        равномерный
мокрый или
старый снег
100% 
12 29.11.21 110 (В) 2-4{07}  1600 м  слаб. снег  10/10 360 м 
[Frnb|Ns]
-0.5 -1.1 96 -1  991.3  -3.3  738  298      равномерный
мокрый или
старый снег
100% 
15 29.11.21 230 (ЮЗ) 2-5{07}  0700 м  снег  10/10 180 м 
[Frnb|Ns]
-1.3 -1.8 96 -2  989.3  -2  736  298        равномерный
сухой снег
100% 
18 29.11.21 290 (З) 3-6{08}  2500 м  слаб. снег  10/10 300 м 
[Frnb|Ns]
-3 -3.9 94 -5  988  -1.3  735  300    +0.2  11  равномерный
сухой снег
100% 
21 29.11.21 310 (СЗ) 4-8{09}  18000 м  слаб. снег  10/10 400 м 
[Frnb|Ns]
-3.8 -5.5 88 -7  987.6  -0.5  735  301        12  равномерный
сухой снег
100% 
00 30.11.21 300 (СЗ) 4-7{12}  4700 м  слаб. снег  10/0 средняя 
[As op]
-3.6 -5 90 -7  986.8  -0.7  734  300      0.2  11  равномерный
сухой снег
100% 
03 30.11.21 300 (СЗ) 5-10{12}  11000 м  слаб. снег  10/10 400 м 
[Frnb|Ns]
-0.8 -2.4 89 -4  986.9  0.2  735  297        11  равномерный
сухой снег
100% 
06 30.11.21 280 (З) 5-10{14}  19000 м  позёмок{снег}  10/10 800 м 
[Sc]
-1.6 -4.2 82 -5  988.3  1.3  736  299  -4.3    0.7  10  равномерный
сухой снег
100% 
Время (UTC), дата Ветер
(°,м/с) 
Видим.   Явления Облачность Т
(°С)
Тd
(°С)
f(%) Тe
(°С)
Pmin
(гПа)
dP
(гПа)
Po
(мм)
O2
(г/м3)
Тmin Tmax R s Состояние
почвы

Для получения пояснительной информации подведите курсор к названию столбца.

ПОГОДА в Бирзаи - архив

Всё, что Вы хотите узнать о погоде в Бирзаи - удобно и подробно!

Выберите нужную дату (начиная с 1 января 2019* года) и нажмите кнопку "Найти".
Будут отображены архивные сводки погоды по пункту Бирзаи, начиная с указанной даты.


Отображать данные в формате CSV (для использования в таблицах Excel)


Внимание! Наш архив погоды предназначен исключительно для личного некоммерческого использования в познавательных целях. Если Вам необходимы официальные справки о состоянии погоды (для производственных, юридических, коммерческих и т.п. целей), обращайтесь в органы Росгидромета.

*Примечание: данная дата относится к архиву по метеостанциям СССР (Россия, СНГ, Балтия).
Архив по метеостанциям Зарубежной Европы и Азии (кроме Китая) хранится 10 дней, по другим регионам земного шара (Китай, Африка, Америка, Австралия, Океания) - 1 день.

Бирзаи - район местоположения метеостанции


Название, широта, долгота, высота метеостанции:
Бирзаи 56.2°ш. 24.8°д. 62 м над ур. моря [Литва]

Дополнительная информация

В oтличие oт бoльшинства пoгoдных сайтoв мы публикуем пoдрoбную метеoинфoрмацию в детальнoм прoфессиoнальнoм фoрмате.

Характеристики температуры и влажнoсти вoздуха измеряются на высoте 2 м в тени вдали oт зданий и деревьев.
Скoрoсть ветра измеряется на высoте 10 м (на урoвне рoста челoвека скoрoсть ветра ниже в 1.5-2 раза). Если метеoстанция нахoдится в гoрoде или в лесу, тo скoрoсть ветра занижена на 2-4 м/с пo сравнению с oткрытым местoм. Скoрoсть ветра над акватoриями крупных рек и oзёр, а также на вершинах хoлмoв на 2-5 м/с выше, чем в oбычных услoвиях.
Атмoсфернoе давление в разных тoчках местнoсти мoжет значительнo oтличаться oт давления на метеoстанции, в зависимoсти oт услoвий рельефа (при пoдъёме на 10 м давление пoнижается примернo на 1 мм рт.ст.).